TimeCST,TemperatureF,Dew PointF,Humidity,Sea Level PressureIn,VisibilityMPH,Wind Direction,Wind SpeedMPH,Gust SpeedMPH,PrecipitationIn,Events,Conditions,WindDirDegrees,DateUTC
12:01 AM,55.4,55.4,100,29.93,4.0,North,5.8,-,N/A,,Overcast,350,2013-02-24 06:01:00
12:53 AM,55.9,55.0,97,29.94,10.0,NNW,8.1,-,N/A,,Overcast,330,2013-02-24 06:53:00
1:53 AM,55.0,53.1,93,29.94,10.0,NNE,5.8,-,N/A,,Overcast,20,2013-02-24 07:53:00
2:07 AM,55.4,53.6,94,29.94,10.0,NNE,4.6,-,N/A,,Overcast,20,2013-02-24 08:07:00
2:53 AM,54.0,53.1,97,29.94,10.0,NNE,4.6,-,N/A,,Overcast,20,2013-02-24 08:53:00
3:22 AM,53.6,51.8,94,29.94,10.0,NNE,4.6,-,N/A,,Overcast,30,2013-02-24 09:22:00
3:50 AM,53.6,51.8,94,29.93,10.0,NNE,4.6,-,N/A,,Scattered Clouds,20,2013-02-24 09:50:00
3:53 AM,53.1,51.1,93,29.93,10.0,NNE,4.6,-,N/A,,Partly Cloudy,20,2013-02-24 09:53:00
4:53 AM,52.0,51.1,97,29.94,10.0,Calm,Calm,-,N/A,,Mostly Cloudy,0,2013-02-24 10:53:00
6:22 AM,51.8,50.0,94,29.98,10.0,Calm,Calm,-,N/A,,Scattered Clouds,0,2013-02-24 12:22:00
6:37 AM,51.8,50.0,94,29.98,9.0,ENE,5.8,-,N/A,,Mostly Cloudy,60,2013-02-24 12:37:00
6:53 AM,52.0,51.1,97,29.98,8.0,NE,6.9,-,N/A,,Overcast,50,2013-02-24 12:53:00
7:53 AM,53.1,52.0,96,30.00,8.0,NE,6.9,-,N/A,,Overcast,50,2013-02-24 13:53:00
8:53 AM,55.0,52.0,89,30.02,10.0,NE,8.1,-,N/A,,Overcast,40,2013-02-24 14:53:00
9:53 AM,57.0,52.0,83,30.01,10.0,NNE,5.8,-,N/A,,Mostly Cloudy,20,2013-02-24 15:53:00
10:06 AM,57.2,51.8,82,30.01,10.0,NE,6.9,-,N/A,,Scattered Clouds,50,2013-02-24 16:06:00
10:53 AM,62.1,52.0,70,30.00,10.0,NE,5.8,-,N/A,,Clear,40,2013-02-24 16:53:00
11:53 AM,66.9,50.0,54,29.97,10.0,ENE,9.2,-,N/A,,Clear,60,2013-02-24 17:53:00
12:53 PM,69.1,46.0,44,29.95,10.0,East,6.9,-,N/A,,Clear,100,2013-02-24 18:53:00
1:53 PM,70.0,46.9,44,29.94,10.0,ENE,10.4,-,N/A,,Overcast,60,2013-02-24 19:53:00
2:53 PM,71.1,46.0,41,29.92,10.0,East,8.1,-,N/A,,Mostly Cloudy,90,2013-02-24 20:53:00
3:53 PM,70.0,46.0,42,29.92,10.0,NE,6.9,-,N/A,,Scattered Clouds,50,2013-02-24 21:53:00
4:53 PM,68.0,48.0,49,29.92,10.0,East,5.8,-,N/A,,Mostly Cloudy,80,2013-02-24 22:53:00
5:53 PM,66.9,48.0,51,29.93,10.0,ENE,3.5,-,N/A,,Overcast,70,2013-02-24 23:53:00
6:53 PM,64.0,51.1,63,29.94,10.0,ENE,5.8,-,N/A,,Overcast,60,2013-02-25 00:53:00
7:53 PM,64.9,46.9,52,29.94,10.0,ESE,3.5,-,N/A,,Overcast,110,2013-02-25 01:53:00
8:53 PM,63.0,51.1,65,29.93,10.0,ENE,5.8,-,N/A,,Mostly Cloudy,60,2013-02-25 02:53:00
9:53 PM,63.0,50.0,63,29.89,10.0,ENE,8.1,-,N/A,,Overcast,60,2013-02-25 03:53:00
10:03 PM,62.6,50.0,63,29.90,10.0,ENE,4.6,-,N/A,Thunderstorm,Overcast,70,2013-02-25 04:03:00
10:39 PM,60.8,51.8,72,29.90,10.0,East,3.5,-,0.02,Rain-Thunderstorm,Light Rain,100,2013-02-25 04:39:00
10:53 PM,60.1,54.0,80,29.90,10.0,East,5.8,-,0.02,Thunderstorm,Overcast,80,2013-02-25 04:53:00
11:07 PM,59.0,53.6,82,29.89,7.0,East,4.6,-,0.04,Rain-Thunderstorm,Rain,100,2013-02-25 05:07:00
11:16 PM,59.0,53.6,82,29.89,5.0,Variable,5.8,-,0.07,Rain-Thunderstorm,Thunderstorms and Rain,0,2013-02-25 05:16:00
11:29 PM,57.2,55.4,94,29.91,5.0,North,5.8,-,0.12,Rain-Thunderstorm,Rain,350,2013-02-25 05:29:00
11:53 PM,57.0,55.0,93,29.88,8.0,North,9.2,-,0.18,Rain-Thunderstorm,Rain,360,2013-02-25 05:53:00